Location: Arroyo Grande
(40.2671°N, 4.2512°W)
Time: 00:19:16
(UTC+00:00)

Cosmos 2278 Rocket - Pass Details

Date: 27 September 2023
Orbit: 842 x 844 km, 71.0° (Epoch: 03 December)

Event Time Altitude Azimuth Distance (km) Brightness Sun altitude
Rises 21:56:56 0° 318° (NW) 3,408 6.2 -41.4°
Reaches altitude 10° 22:00:23 10° 296° (WNW) 2,467 5.2 -41.9°
Enters shadow 22:02:08 14° 279° (W) 2,180 4.7 -42.1°
